Home > Weather > Allentown > Past weeks

Flag for USA Past Weather in Allentown, Pennsylvania, USA — Yesterday and Last 2 Weeks

Now
72 °F

Sunny.


Feels Like: 73 °F
Forecast: 67 / 91 °F
Wind: No wind

Location: Lehigh Valley International Airport

Current Time: Jul 28, 2016 at 8:30:51 AM

Latest Report: Jul 28, 2016 at 7:51 AM


Visibility: 10 mi

Pressure: 29.93 "Hg

Humidity: 78%

Dew Point: 65 °F

Location of AllentownLocation

Past Weather in Allentown — Graph

°F

Allentown Temperature Yesterday

Maximum temperature yesterday: 90 °F (at 3:51 PM)
Minimum temperature yesterday: 68 °F (at 5:51 AM)
Average temperature yesterday: 79 °F

High & Low Weather Summary for the Past Weeks

 TemperatureHumidityPressure
High96 °F (Jul 22, 3:51 PM)94% (Jul 18, 7:04 PM)30.25 "Hg (Jul 18, 7:04 PM)
Low58 °F (Jul 21, 4:51 AM)25% (Jul 23, 2:51 PM)29.78 "Hg (Jul 14, 5:51 PM)
Average79 °F63%29.99 "Hg
* Reported Jul 13 6:51 AM — Jul 28 6:51 AM, Allentown, Weather by CustomWeather, © 2016

Note: Actual official high and low records may vary slightly from our data, if they occured in-between our weather recording intervals... More about our weather records

Advertising

Allentown Weather History for the Previous 24 Hours

Scroll right to see more
 ConditionsComfort  
Time TempWeatherWind HumidityBarometerVisibility
6:51 AM
Thu, Jul 28
69 °FClear.No wind81%29.92 "Hg10 mi
5:51 AM65 °FClear.No wind91%29.92 "Hg10 mi
4:51 AM66 °FClear.No wind87%29.91 "Hg10 mi
3:51 AM69 °FClear.No wind81%29.91 "Hg10 mi
2:51 AM70 °FClear.3 mph79%29.92 "Hg10 mi
1:51 AM70 °FClear.No wind81%29.92 "Hg10 mi
12:51 AM72 °FClear.No wind71%29.91 "Hg10 mi
11:51 PM
Wed, Jul 27
71 °FClear.5 mph76%29.91 "Hg10 mi
10:51 PM73 °FClear.No wind71%29.92 "Hg10 mi
9:51 PM79 °FClear.No wind54%29.91 "Hg10 mi
8:51 PM79 °FSunny.5 mph50%29.90 "Hg10 mi
7:51 PM84 °FSunny.3 mph41%29.90 "Hg10 mi
6:51 PM88 °FSunny.6 mph33%29.89 "Hg10 mi
5:51 PM89 °FSunny.5 mph34%29.90 "Hg10 mi
4:51 PM90 °FSunny.No wind37%29.90 "Hg10 mi
3:51 PM90 °FPartly sunny.6 mph41%29.92 "Hg10 mi
2:51 PM88 °FPassing clouds.No wind42%29.93 "Hg10 mi
1:51 PM87 °FPassing clouds.3 mph42%29.94 "Hg10 mi
12:51 PM87 °FSunny.No wind46%29.96 "Hg10 mi
11:51 AM85 °FSunny.3 mph45%29.97 "Hg10 mi
10:51 AM84 °FSunny.No wind46%29.97 "Hg10 mi
9:51 AM82 °FSunny.No wind56%29.97 "Hg10 mi
8:51 AM77 °FSunny.No wind64%29.97 "Hg10 mi
Weather by CustomWeather, © 2016

See weather overviewHow to use our weather pages